Location: Godiavel Galaoual
(15.2485°N, 12.6604°W)
Time: 12:40:04
(UTC+00:00)

LightSail 2 - Pass Details

Date: 09 June 2020
Orbit: 692 x 720 km, 24.0° (Epoch: 14 July)

Event Time Altitude Azimuth Distance (km) Brightness Sun altitude
Rises 22:13:30 0° 274° (W) 3,046 9.0 -35.9°
Reaches altitude 10° 22:16:03 10° 282° (WNW) 2,130 8.2 -36.3°
Enters shadow 22:17:53 21° 295° (WNW) 1,545 7.4 -36.6°
